Time,TemperatureF,DewpointF,PressureIn,WindDirection,WindDirectionDegrees,WindSpeedMPH,WindSpeedGustMPH,Humidity,HourlyPrecipIn,Conditions,Clouds,dailyrainin,SoftwareType,DateUTC
2013-01-17 00:03:00,48.2,1.2,30.11,SE,128,5.8,5.8,14,0.00,,,0.00,VWS V14.01,2013-01-17 08:03:00,
2013-01-17 00:08:00,48.4,1.4,30.11,East,83,3.6,3.6,14,0.00,,,0.00,VWS V14.01,2013-01-17 08:08:00,
2013-01-17 00:13:00,48.4,1.4,30.11,ENE,61,0.0,2.7,14,0.00,,,0.00,VWS V14.01,2013-01-17 08:13:00,
2013-01-17 00:18:00,48.4,1.4,30.11,NNW,346,2.7,6.3,14,0.00,,,0.00,VWS V14.01,2013-01-17 08:18:00,
2013-01-17 00:23:00,48.4,1.4,30.11,NE,43,5.8,5.8,14,0.00,,,0.00,VWS V14.01,2013-01-17 08:23:00,
2013-01-17 00:28:00,48.2,1.2,30.11,ENE,61,2.2,3.6,14,0.00,,,0.00,VWS V14.01,2013-01-17 08:28:00,
2013-01-17 00:33:00,48.0,1.1,30.11,SE,133,2.2,3.6,14,0.00,,,0.00,VWS V14.01,2013-01-17 08:33:00,
2013-01-17 00:38:00,47.8,1.0,30.11,ESE,122,4.9,4.9,14,0.00,,,0.00,VWS V14.01,2013-01-17 08:38:00,
2013-01-17 00:43:00,47.7,-2.5,30.11,SE,130,2.7,3.6,12,0.00,,,0.00,VWS V14.01,2013-01-17 08:43:00,
2013-01-17 00:48:00,47.5,-2.6,30.11,ESE,106,2.2,3.1,12,0.00,,,0.00,VWS V14.01,2013-01-17 08:48:00,
2013-01-17 00:53:00,47.3,-2.7,30.11,NNE,14,2.7,5.8,12,0.00,,,0.00,VWS V14.01,2013-01-17 08:53:00,
2013-01-17 00:59:00,47.3,-2.7,30.11,SE,142,3.1,5.8,12,0.00,,,0.00,VWS V14.01,2013-01-17 08:59:00,
2013-01-17 01:04:00,47.5,-2.6,30.11,SE,124,3.6,5.4,12,0.00,,,0.00,VWS V14.01,2013-01-17 09:04:00,
2013-01-17 01:09:00,47.5,-2.6,30.11,ESE,109,2.7,4.0,12,0.00,,,0.00,VWS V14.01,2013-01-17 09:09:00,
2013-01-17 01:14:00,47.5,-2.6,30.11,East,85,3.6,7.6,12,0.00,,,0.00,VWS V14.01,2013-01-17 09:14:00,
2013-01-17 01:19:00,47.5,-2.6,30.11,North,357,3.6,8.1,12,0.00,,,0.00,VWS V14.01,2013-01-17 09:19:00,
2013-01-17 01:24:00,47.5,-2.6,30.11,North,1,0.0,6.3,12,0.00,,,0.00,VWS V14.01,2013-01-17 09:24:00,
2013-01-17 01:29:00,47.7,-2.5,30.11,ENE,77,0.0,4.5,12,0.00,,,0.00,VWS V14.01,2013-01-17 09:29:00,
2013-01-17 01:34:00,47.5,-2.6,30.11,South,181,2.7,4.0,12,0.00,,,0.00,VWS V14.01,2013-01-17 09:34:00,
2013-01-17 01:39:00,47.3,-2.7,30.11,NE,42,3.1,3.1,12,0.00,,,0.00,VWS V14.01,2013-01-17 09:39:00,
2013-01-17 01:44:00,47.3,-2.7,30.11,North,1,3.1,5.8,12,0.00,,,0.00,VWS V14.01,2013-01-17 09:44:00,
2013-01-17 01:49:00,47.3,-2.7,30.11,North,9,6.3,6.3,12,0.00,,,0.00,VWS V14.01,2013-01-17 09:49:00,
2013-01-17 01:54:00,47.1,-2.9,30.11,ENE,61,6.7,6.7,12,0.00,,,0.00,VWS V14.01,2013-01-17 09:54:00,
2013-01-17 01:59:00,46.9,-3.0,30.11,NNE,14,3.6,4.0,12,0.00,,,0.00,VWS V14.01,2013-01-17 09:59:00,
2013-01-17 02:04:00,47.1,-2.9,30.11,NNE,28,4.0,4.0,12,0.00,,,0.00,VWS V14.01,2013-01-17 10:04:00,
2013-01-17 02:09:00,46.9,-3.0,30.11,ENE,68,2.7,5.8,12,0.00,,,0.00,VWS V14.01,2013-01-17 10:09:00,
2013-01-17 02:14:00,46.9,-3.0,30.11,NE,45,2.7,3.1,12,0.00,,,0.00,VWS V14.01,2013-01-17 10:14:00,
2013-01-17 02:19:00,46.9,-3.0,30.11,SE,145,2.7,2.7,12,0.00,,,0.00,VWS V14.01,2013-01-17 10:19:00,
2013-01-17 02:24:00,46.9,-3.0,30.11,East,85,3.1,5.8,12,0.00,,,0.00,VWS V14.01,2013-01-17 10:24:00,
2013-01-17 02:29:00,46.9,-3.0,30.11,North,357,0.0,0.0,12,0.00,,,0.00,VWS V14.01,2013-01-17 10:29:00,
2013-01-17 02:34:00,46.9,-3.0,30.11,ESE,112,2.7,4.0,12,0.00,,,0.00,VWS V14.01,2013-01-17 10:34:00,
2013-01-17 02:39:00,46.9,-3.0,30.11,SE,144,3.1,5.4,12,0.00,,,0.00,VWS V14.01,2013-01-17 10:39:00,
2013-01-17 02:44:00,46.9,-3.0,30.08,ENE,66,6.3,6.3,12,0.00,,,0.00,VWS V14.01,2013-01-17 10:44:00,
2013-01-17 02:49:00,46.9,-3.0,30.08,NE,55,4.9,8.7,12,0.00,,,0.00,VWS V14.01,2013-01-17 10:49:00,
2013-01-17 02:54:00,46.8,-3.2,30.08,East,92,2.7,7.6,12,0.00,,,0.00,VWS V14.01,2013-01-17 10:54:00,
2013-01-17 02:59:00,46.8,-3.2,30.08,SSE,151,3.6,3.6,12,0.00,,,0.00,VWS V14.01,2013-01-17 10:59:00,
2013-01-17 03:04:00,46.8,-3.2,30.08,NNE,14,2.7,4.0,12,0.00,,,0.00,VWS V14.01,2013-01-17 11:04:00,
2013-01-17 03:09:00,46.9,0.2,30.08,NE,41,2.7,4.0,14,0.00,,,0.00,VWS V14.01,2013-01-17 11:09:00,
2013-01-17 03:14:00,47.3,0.5,30.08,East,97,7.6,7.6,14,0.00,,,0.00,VWS V14.01,2013-01-17 11:14:00,
2013-01-17 03:19:00,47.3,0.5,30.08,NE,38,4.0,4.0,14,0.00,,,0.00,VWS V14.01,2013-01-17 11:19:00,
2013-01-17 03:24:00,47.3,0.5,30.08,SE,124,4.0,5.4,14,0.00,,,0.00,VWS V14.01,2013-01-17 11:24:00,
2013-01-17 03:29:00,47.3,0.5,30.08,NE,42,3.6,3.6,14,0.00,,,0.00,VWS V14.01,2013-01-17 11:29:00,
2013-01-17 03:34:00,47.1,0.4,30.08,ENE,75,3.6,4.0,14,0.00,,,0.00,VWS V14.01,2013-01-17 11:34:00,
2013-01-17 03:39:00,46.9,0.2,30.08,ESE,121,3.6,6.3,14,0.00,,,0.00,VWS V14.01,2013-01-17 11:39:00,
2013-01-17 03:44:00,46.9,0.2,30.08,NNE,31,7.2,7.2,14,0.00,,,0.00,VWS V14.01,2013-01-17 11:44:00,
2013-01-17 03:49:00,46.8,0.1,30.08,NE,56,3.6,3.6,14,0.00,,,0.00,VWS V14.01,2013-01-17 11:49:00,
2013-01-17 03:54:00,46.6,-3.3,30.08,ENE,60,2.7,3.6,12,0.00,,,0.00,VWS V14.01,2013-01-17 11:54:00,
2013-01-17 03:59:00,46.4,-0.2,30.08,NE,35,3.6,3.6,14,0.00,,,0.00,VWS V14.01,2013-01-17 11:59:00,
2013-01-17 04:04:00,46.2,-3.6,30.08,SSE,152,2.2,3.1,12,0.00,,,0.00,VWS V14.01,2013-01-17 12:04:00,
2013-01-17 04:09:00,46.0,1.0,30.08,NE,49,2.7,5.8,15,0.00,,,0.00,VWS V14.01,2013-01-17 12:09:00,
2013-01-17 04:14:00,46.0,1.0,30.08,ENE,74,5.4,5.4,15,0.00,,,0.00,VWS V14.01,2013-01-17 12:14:00,
2013-01-17 04:19:00,45.9,0.8,30.08,ESE,103,4.0,4.0,15,0.00,,,0.00,VWS V14.01,2013-01-17 12:19:00,
2013-01-17 04:24:00,45.9,0.8,30.05,North,7,4.0,4.9,15,0.00,,,0.00,VWS V14.01,2013-01-17 12:24:00,
2013-01-17 04:29:00,45.9,0.8,30.05,North,6,4.9,4.9,15,0.00,,,0.00,VWS V14.01,2013-01-17 12:29:00,
2013-01-17 04:34:00,45.9,0.8,30.05,SE,127,3.6,3.6,15,0.00,,,0.00,VWS V14.01,2013-01-17 12:34:00,
2013-01-17 04:39:00,45.7,0.7,30.08,West,267,3.6,5.4,15,0.00,,,0.00,VWS V14.01,2013-01-17 12:39:00,
2013-01-17 04:44:00,45.7,0.7,30.08,ESE,118,4.5,4.9,15,0.00,,,0.00,VWS V14.01,2013-01-17 12:44:00,
2013-01-17 04:49:00,45.9,0.8,30.08,ENE,62,3.6,4.0,15,0.00,,,0.00,VWS V14.01,2013-01-17 12:49:00,
2013-01-17 04:54:00,45.9,0.8,30.05,NE,55,2.7,3.1,15,0.00,,,0.00,VWS V14.01,2013-01-17 12:54:00,
2013-01-17 05:00:00,45.9,0.8,30.05,ENE,70,2.7,5.4,15,0.00,,,0.00,VWS V14.01,2013-01-17 13:00:00,
2013-01-17 05:05:00,45.9,0.8,30.05,ESE,120,2.7,3.1,15,0.00,,,0.00,VWS V14.01,2013-01-17 13:05:00,
2013-01-17 05:09:00,45.9,0.8,30.05,SE,139,2.7,4.0,15,0.00,,,0.00,VWS V14.01,2013-01-17 13:09:00,
2013-01-17 05:14:00,45.9,0.8,30.05,ENE,71,3.1,5.4,15,0.00,,,0.00,VWS V14.01,2013-01-17 13:14:00,
2013-01-17 05:20:00,45.9,0.8,30.05,NE,48,3.1,3.6,15,0.00,,,0.00,VWS V14.01,2013-01-17 13:20:00,
2013-01-17 05:25:00,45.9,0.8,30.05,NNW,328,3.1,4.9,15,0.00,,,0.00,VWS V14.01,2013-01-17 13:25:00,
2013-01-17 05:30:00,45.9,0.8,30.05,NE,36,7.6,7.6,15,0.00,,,0.00,VWS V14.01,2013-01-17 13:30:00,
2013-01-17 05:35:00,45.9,0.8,30.05,East,95,8.7,8.7,15,0.00,,,0.00,VWS V14.01,2013-01-17 13:35:00,
2013-01-17 05:40:00,45.9,0.8,30.05,ENE,61,4.0,4.0,15,0.00,,,0.00,VWS V14.01,2013-01-17 13:40:00,
2013-01-17 05:45:00,45.7,0.7,30.05,ESE,123,6.3,10.5,15,0.00,,,0.00,VWS V14.01,2013-01-17 13:45:00,
2013-01-17 05:50:00,45.7,0.7,30.05,North,357,3.1,6.3,15,0.00,,,0.00,VWS V14.01,2013-01-17 13:50:00,
2013-01-17 05:55:00,45.7,0.7,30.05,ESE,113,10.5,10.5,15,0.00,,,0.00,VWS V14.01,2013-01-17 13:55:00,
2013-01-17 06:00:00,45.7,0.7,30.05,ESE,115,10.1,10.1,15,0.00,,,0.00,VWS V14.01,2013-01-17 14:00:00,
2013-01-17 06:05:00,45.7,0.7,30.05,ENE,71,5.8,5.8,15,0.00,,,0.00,VWS V14.01,2013-01-17 14:05:00,
2013-01-17 06:10:00,45.7,0.7,30.05,NE,38,5.8,5.8,15,0.00,,,0.00,VWS V14.01,2013-01-17 14:10:00,
2013-01-17 06:15:00,45.9,0.8,30.05,WNW,293,3.6,6.3,15,0.00,,,0.00,VWS V14.01,2013-01-17 14:15:00,
2013-01-17 06:20:00,46.0,1.0,30.05,North,357,3.6,3.6,15,0.00,,,0.00,VWS V14.01,2013-01-17 14:20:00,
2013-01-17 06:25:00,46.2,1.1,30.08,SE,140,4.0,5.8,15,0.00,,,0.00,VWS V14.01,2013-01-17 14:25:00,
2013-01-17 06:30:00,46.4,-0.2,30.08,NNE,25,5.4,5.4,14,0.00,,,0.00,VWS V14.01,2013-01-17 14:30:00,
2013-01-17 06:35:00,46.8,0.1,30.08,North,357,8.3,8.3,14,0.00,,,0.00,VWS V14.01,2013-01-17 14:35:00,
2013-01-17 06:40:00,46.8,0.1,30.08,SE,127,6.3,8.7,14,0.00,,,0.00,VWS V14.01,2013-01-17 14:40:00,
2013-01-17 06:45:00,46.9,0.2,30.08,NNE,23,5.4,5.4,14,0.00,,,0.00,VWS V14.01,2013-01-17 14:45:00,
2013-01-17 06:50:00,47.1,0.4,30.08,ESE,114,5.8,5.8,14,0.00,,,0.00,VWS V14.01,2013-01-17 14:50:00,
2013-01-17 06:55:00,47.3,0.5,30.08,NNE,32,6.3,6.3,14,0.00,,,0.00,VWS V14.01,2013-01-17 14:55:00,
2013-01-17 07:00:00,47.3,0.5,30.08,NNE,31,8.1,8.1,14,0.00,,,0.00,VWS V14.01,2013-01-17 15:00:00,
2013-01-17 07:05:00,47.5,0.7,30.08,ENE,75,10.5,10.5,14,0.00,,,0.00,VWS V14.01,2013-01-17 15:05:00,
2013-01-17 07:10:00,47.5,0.7,30.08,SSE,154,2.7,2.7,14,0.00,,,0.00,VWS V14.01,2013-01-17 15:10:00,
2013-01-17 07:15:00,47.5,0.7,30.08,SSE,165,3.1,3.1,14,0.00,,,0.00,VWS V14.01,2013-01-17 15:15:00,
2013-01-17 07:20:00,47.5,0.7,30.08,SSE,152,3.6,3.6,14,0.00,,,0.00,VWS V14.01,2013-01-17 15:20:00,
2013-01-17 07:25:00,47.5,0.7,30.08,ESE,111,5.8,6.3,14,0.00,,,0.00,VWS V14.01,2013-01-17 15:25:00,
2013-01-17 07:30:00,47.5,0.7,30.08,SE,137,3.1,5.8,14,0.00,,,0.00,VWS V14.01,2013-01-17 15:30:00,
2013-01-17 07:35:00,47.5,0.7,30.08,ESE,110,4.0,4.0,14,0.00,,,0.00,VWS V14.01,2013-01-17 15:35:00,
2013-01-17 07:40:00,47.3,0.5,30.08,ESE,119,3.6,3.6,14,0.00,,,0.00,VWS V14.01,2013-01-17 15:40:00,
2013-01-17 07:45:00,47.5,0.7,30.08,SE,127,3.1,3.1,14,0.00,,,0.00,VWS V14.01,2013-01-17 15:45:00,
2013-01-17 07:50:00,47.7,0.8,30.08,NE,34,3.1,5.4,14,0.00,,,0.00,VWS V14.01,2013-01-17 15:50:00,
2013-01-17 07:55:00,47.7,0.8,30.08,SE,126,7.6,7.6,14,0.00,,,0.00,VWS V14.01,2013-01-17 15:55:00,
2013-01-17 08:00:00,47.8,1.0,30.08,West,270,3.6,3.6,14,0.00,,,0.00,VWS V14.01,2013-01-17 16:00:00,
2013-01-17 08:05:00,48.2,1.2,30.08,NE,47,4.0,8.1,14,0.00,,,0.00,VWS V14.01,2013-01-17 16:05:00,
2013-01-17 08:10:00,48.7,1.7,30.08,North,10,4.0,4.9,14,0.00,,,0.00,VWS V14.01,2013-01-17 16:10:00,
2013-01-17 08:15:00,49.1,2.0,30.08,SE,140,3.6,6.3,14,0.00,,,0.00,VWS V14.01,2013-01-17 16:15:00,
2013-01-17 08:20:00,49.8,2.5,30.08,SE,134,3.1,5.4,14,0.00,,,0.00,VWS V14.01,2013-01-17 16:20:00,
2013-01-17 08:25:00,50.2,2.8,30.08,SE,139,3.1,4.0,14,0.00,,,0.00,VWS V14.01,2013-01-17 16:25:00,
2013-01-17 08:30:00,50.5,3.1,30.08,ESE,121,0.0,0.0,14,0.00,,,0.00,VWS V14.01,2013-01-17 16:30:00,
2013-01-17 08:35:00,50.9,3.4,30.08,NE,40,3.6,3.6,14,0.00,,,0.00,VWS V14.01,2013-01-17 16:35:00,
2013-01-17 08:40:00,51.4,3.8,30.08,NNE,15,2.7,2.7,14,0.00,,,0.00,VWS V14.01,2013-01-17 16:40:00,
2013-01-17 08:45:00,52.0,2.7,30.08,SE,125,2.7,2.7,13,0.00,,,0.00,VWS V14.01,2013-01-17 16:45:00,
2013-01-17 08:50:00,52.3,3.0,30.08,NE,48,3.1,5.4,13,0.00,,,0.00,VWS V14.01,2013-01-17 16:50:00,
2013-01-17 08:55:00,52.7,3.2,30.08,North,357,6.7,6.7,13,0.00,,,0.00,VWS V14.01,2013-01-17 16:55:00,
2013-01-17 09:00:00,53.1,3.5,30.08,SSW,203,0.0,2.7,13,0.00,,,0.00,VWS V14.01,2013-01-17 17:00:00,
2013-01-17 09:05:00,53.4,3.8,30.08,SW,233,2.7,4.0,13,0.00,,,0.00,VWS V14.01,2013-01-17 17:05:00,
2013-01-17 09:11:00,53.6,4.0,30.08,SE,140,5.8,8.1,13,0.00,,,0.00,VWS V14.01,2013-01-17 17:11:00,
2013-01-17 09:16:00,53.8,4.1,30.08,ESE,123,2.2,4.0,13,0.00,,,0.00,VWS V14.01,2013-01-17 17:16:00,
2013-01-17 09:21:00,54.1,4.4,30.08,SE,137,4.0,4.0,13,0.00,,,0.00,VWS V14.01,2013-01-17 17:21:00,
2013-01-17 09:26:00,54.5,4.7,30.08,North,357,4.0,4.0,13,0.00,,,0.00,VWS V14.01,2013-01-17 17:26:00,
2013-01-17 09:31:00,54.9,5.0,30.08,NE,44,5.4,5.4,13,0.00,,,0.00,VWS V14.01,2013-01-17 17:31:00,
2013-01-17 09:36:00,55.0,5.1,30.08,ESE,112,4.9,4.9,13,0.00,,,0.00,VWS V14.01,2013-01-17 17:36:00,
2013-01-17 09:41:00,55.4,3.7,30.11,ESE,115,2.7,2.7,12,0.00,,,0.00,VWS V14.01,2013-01-17 17:41:00,
2013-01-17 09:46:00,55.6,3.8,30.11,SSE,155,2.2,3.1,12,0.00,,,0.00,VWS V14.01,2013-01-17 17:46:00,
2013-01-17 09:51:00,55.4,3.7,30.11,East,84,5.4,6.3,12,0.00,,,0.00,VWS V14.01,2013-01-17 17:51:00,
2013-01-17 09:56:00,55.8,3.9,30.08,NW,310,3.1,3.1,12,0.00,,,0.00,VWS V14.01,2013-01-17 17:56:00,
2013-01-17 10:01:00,56.3,4.4,30.08,SE,132,3.1,3.1,12,0.00,,,0.00,VWS V14.01,2013-01-17 18:01:00,
2013-01-17 10:06:00,56.3,4.4,30.08,North,357,3.1,5.4,12,0.00,,,0.00,VWS V14.01,2013-01-17 18:06:00,
2013-01-17 10:11:00,56.5,4.5,30.08,North,357,3.6,3.6,12,0.00,,,0.00,VWS V14.01,2013-01-17 18:11:00,
2013-01-17 10:16:00,56.8,4.8,30.08,North,3,3.6,5.8,12,0.00,,,0.00,VWS V14.01,2013-01-17 18:16:00,
2013-01-17 10:21:00,57.4,5.2,30.08,NNE,30,3.6,4.0,12,0.00,,,0.00,VWS V14.01,2013-01-17 18:21:00,
2013-01-17 10:26:00,57.6,5.3,30.08,NNE,30,4.9,4.9,12,0.00,,,0.00,VWS V14.01,2013-01-17 18:26:00,
2013-01-17 10:31:00,57.7,5.5,30.08,SW,218,2.2,2.7,12,0.00,,,0.00,VWS V14.01,2013-01-17 18:31:00,
2013-01-17 10:36:00,58.1,5.8,30.08,East,91,4.0,7.6,12,0.00,,,0.00,VWS V14.01,2013-01-17 18:36:00,
2013-01-17 10:41:00,58.5,6.1,30.08,SE,124,4.0,9.6,12,0.00,,,0.00,VWS V14.01,2013-01-17 18:41:00,
2013-01-17 10:46:00,59.0,6.5,30.08,WSW,252,5.8,6.3,12,0.00,,,0.00,VWS V14.01,2013-01-17 18:46:00,
2013-01-17 10:51:00,59.2,6.6,30.08,East,94,4.9,6.3,12,0.00,,,0.00,VWS V14.01,2013-01-17 18:51:00,
2013-01-17 10:56:00,59.4,6.8,30.08,SSW,202,2.7,2.7,12,0.00,,,0.00,VWS V14.01,2013-01-17 18:56:00,
2013-01-17 11:01:00,59.4,6.8,30.08,South,190,2.7,4.0,12,0.00,,,0.00,VWS V14.01,2013-01-17 19:01:00,
2013-01-17 11:06:00,59.9,7.2,30.08,SSW,192,3.6,4.0,12,0.00,,,0.00,VWS V14.01,2013-01-17 19:06:00,
2013-01-17 11:11:00,59.7,7.0,30.05,ENE,69,2.7,2.7,12,0.00,,,0.00,VWS V14.01,2013-01-17 19:11:00,
2013-01-17 11:16:00,59.5,6.9,30.05,ESE,122,4.0,5.4,12,0.00,,,0.00,VWS V14.01,2013-01-17 19:16:00,
2013-01-17 11:21:00,59.5,6.9,30.05,NNE,32,5.8,5.8,12,0.00,,,0.00,VWS V14.01,2013-01-17 19:21:00,
2013-01-17 11:26:00,59.5,6.9,30.05,East,101,5.4,5.4,12,0.00,,,0.00,VWS V14.01,2013-01-17 19:26:00,
2013-01-17 11:31:00,59.5,6.9,30.05,WSW,256,5.4,5.4,12,0.00,,,0.00,VWS V14.01,2013-01-17 19:31:00,
2013-01-17 11:36:00,59.9,7.2,30.05,SW,233,2.7,2.7,12,0.00,,,0.00,VWS V14.01,2013-01-17 19:36:00,
2013-01-17 11:41:00,60.1,7.3,30.05,East,83,6.3,6.3,12,0.00,,,0.00,VWS V14.01,2013-01-17 19:41:00,
2013-01-17 11:46:00,60.1,7.3,30.05,SSE,152,3.6,4.9,12,0.00,,,0.00,VWS V14.01,2013-01-17 19:46:00,
2013-01-17 11:51:00,60.1,7.3,30.05,ESE,123,6.3,6.3,12,0.00,,,0.00,VWS V14.01,2013-01-17 19:51:00,
2013-01-17 11:56:00,60.1,7.3,30.05,NNE,29,2.7,5.4,12,0.00,,,0.00,VWS V14.01,2013-01-17 19:56:00,
2013-01-17 12:01:00,60.3,7.5,30.05,North,353,3.1,4.0,12,0.00,,,0.00,VWS V14.01,2013-01-17 20:01:00,
2013-01-17 12:06:00,60.3,7.5,30.05,SSE,155,3.1,3.1,12,0.00,,,0.00,VWS V14.01,2013-01-17 20:06:00,
2013-01-17 12:11:00,60.4,7.6,30.05,North,357,3.1,4.0,12,0.00,,,0.00,VWS V14.01,2013-01-17 20:11:00,
2013-01-17 12:16:00,60.1,7.3,30.05,NNE,12,4.0,5.4,12,0.00,,,0.00,VWS V14.01,2013-01-17 20:16:00,
2013-01-17 12:21:00,60.1,7.3,30.05,ESE,105,3.1,6.3,12,0.00,,,0.00,VWS V14.01,2013-01-17 20:21:00,
2013-01-17 12:26:00,60.3,7.5,30.02,North,9,3.6,4.0,12,0.00,,,0.00,VWS V14.01,2013-01-17 20:26:00,
2013-01-17 12:31:00,60.3,7.5,30.02,SE,138,5.4,7.6,12,0.00,,,0.00,VWS V14.01,2013-01-17 20:31:00,
2013-01-17 12:36:00,60.1,7.3,30.02,South,175,3.6,6.7,12,0.00,,,0.00,VWS V14.01,2013-01-17 20:36:00,
2013-01-17 12:41:00,60.1,7.3,30.02,SE,126,7.6,7.6,12,0.00,,,0.00,VWS V14.01,2013-01-17 20:41:00,
2013-01-17 12:46:00,60.3,7.5,30.02,North,0,2.7,8.1,12,0.00,,,0.00,VWS V14.01,2013-01-17 20:46:00,
2013-01-17 12:51:00,60.1,7.3,30.02,NNE,25,5.4,8.7,12,0.00,,,0.00,VWS V14.01,2013-01-17 20:51:00,
2013-01-17 12:56:00,60.1,7.3,30.02,East,86,5.4,8.1,12,0.00,,,0.00,VWS V14.01,2013-01-17 20:56:00,
2013-01-17 13:01:00,59.9,7.2,30.02,NNE,14,6.3,6.3,12,0.00,,,0.00,VWS V14.01,2013-01-17 21:01:00,
2013-01-17 13:06:00,59.9,7.2,30.02,East,97,4.0,5.8,12,0.00,,,0.00,VWS V14.01,2013-01-17 21:06:00,
2013-01-17 13:11:00,60.3,7.5,30.02,North,0,6.3,7.2,12,0.00,,,0.00,VWS V14.01,2013-01-17 21:11:00,
2013-01-17 13:16:00,60.4,7.6,30.02,SE,135,3.1,8.1,12,0.00,,,0.00,VWS V14.01,2013-01-17 21:16:00,
2013-01-17 13:21:00,60.6,7.8,30.02,North,8,3.6,8.1,12,0.00,,,0.00,VWS V14.01,2013-01-17 21:21:00,
2013-01-17 13:26:00,60.4,7.6,30.02,NE,34,5.8,5.8,12,0.00,,,0.00,VWS V14.01,2013-01-17 21:26:00,
2013-01-17 13:31:00,60.3,7.5,30.02,ESE,105,7.6,7.6,12,0.00,,,0.00,VWS V14.01,2013-01-17 21:31:00,
2013-01-17 13:36:00,60.3,7.5,30.02,NNE,20,4.0,8.1,12,0.00,,,0.00,VWS V14.01,2013-01-17 21:36:00,
2013-01-17 13:41:00,60.4,7.6,30.02,NNE,25,9.6,9.6,12,0.00,,,0.00,VWS V14.01,2013-01-17 21:41:00,
2013-01-17 13:46:00,60.4,7.6,30.02,SSE,159,5.8,7.6,12,0.00,,,0.00,VWS V14.01,2013-01-17 21:46:00,
2013-01-17 13:51:00,60.4,7.6,30.02,ESE,118,9.6,11.0,12,0.00,,,0.00,VWS V14.01,2013-01-17 21:51:00,
2013-01-17 13:56:00,60.8,6.0,30.02,NE,55,3.1,5.8,11,0.00,,,0.00,VWS V14.01,2013-01-17 21:56:00,
2013-01-17 14:01:00,61.0,6.1,30.02,NE,35,3.1,5.4,11,0.00,,,0.00,VWS V14.01,2013-01-17 22:01:00,
2013-01-17 14:06:00,61.2,6.3,30.02,North,4,5.8,8.1,11,0.00,,,0.00,VWS V14.01,2013-01-17 22:06:00,
2013-01-17 14:11:00,61.3,6.4,29.99,ENE,73,9.6,9.6,11,0.00,,,0.00,VWS V14.01,2013-01-17 22:11:00,
2013-01-17 14:16:00,61.0,6.1,29.99,East,82,8.1,8.1,11,0.00,,,0.00,VWS V14.01,2013-01-17 22:16:00,
2013-01-17 14:21:00,60.6,7.8,29.99,SE,133,8.7,8.7,12,0.00,,,0.00,VWS V14.01,2013-01-17 22:21:00,
2013-01-17 14:26:00,60.8,6.0,29.99,ESE,117,3.1,8.3,11,0.00,,,0.00,VWS V14.01,2013-01-17 22:26:00,
2013-01-17 14:31:00,60.8,6.0,29.99,East,99,8.7,8.7,11,0.00,,,0.00,VWS V14.01,2013-01-17 22:31:00,
2013-01-17 14:36:00,61.0,6.1,29.99,SE,126,6.3,6.3,11,0.00,,,0.00,VWS V14.01,2013-01-17 22:36:00,
2013-01-17 14:41:00,60.8,6.0,29.99,East,79,5.4,5.8,11,0.00,,,0.00,VWS V14.01,2013-01-17 22:41:00,
2013-01-17 14:46:00,61.0,6.1,29.99,NE,48,2.2,5.4,11,0.00,,,0.00,VWS V14.01,2013-01-17 22:46:00,
2013-01-17 14:52:00,61.2,6.3,29.99,ESE,123,5.4,7.6,11,0.00,,,0.00,VWS V14.01,2013-01-17 22:52:00,
2013-01-17 14:57:00,61.0,6.1,29.99,NE,37,8.1,8.1,11,0.00,,,0.00,VWS V14.01,2013-01-17 22:57:00,
2013-01-17 15:02:00,60.8,6.0,29.99,East,89,5.4,7.2,11,0.00,,,0.00,VWS V14.01,2013-01-17 23:02:00,
2013-01-17 15:07:00,61.0,6.1,29.99,East,88,3.6,8.7,11,0.00,,,0.00,VWS V14.01,2013-01-17 23:07:00,
2013-01-17 15:12:00,61.0,6.1,29.99,SE,137,5.4,6.3,11,0.00,,,0.00,VWS V14.01,2013-01-17 23:12:00,
2013-01-17 15:17:00,61.0,6.1,29.99,North,0,7.6,9.2,11,0.00,,,0.00,VWS V14.01,2013-01-17 23:17:00,
2013-01-17 15:22:00,60.8,6.0,29.99,ENE,77,4.0,5.8,11,0.00,,,0.00,VWS V14.01,2013-01-17 23:22:00,
2013-01-17 15:27:00,60.8,6.0,29.99,NNE,12,8.1,10.5,11,0.00,,,0.00,VWS V14.01,2013-01-17 23:27:00,
2013-01-17 15:32:00,60.6,7.8,29.99,ENE,62,3.6,6.3,12,0.00,,,0.00,VWS V14.01,2013-01-17 23:32:00,
2013-01-17 15:37:00,60.8,6.0,29.99,East,96,11.4,11.4,11,0.00,,,0.00,VWS V14.01,2013-01-17 23:37:00,
2013-01-17 15:42:00,60.6,7.8,29.99,ESE,106,5.4,5.4,12,0.00,,,0.00,VWS V14.01,2013-01-17 23:42:00,
2013-01-17 15:47:00,60.6,7.8,29.99,ENE,57,6.3,6.3,12,0.00,,,0.00,VWS V14.01,2013-01-17 23:47:00,
2013-01-17 15:52:00,60.6,7.8,29.99,NNE,33,5.8,5.8,12,0.00,,,0.00,VWS V14.01,2013-01-17 23:52:00,
2013-01-17 15:57:00,60.6,7.8,29.99,ENE,61,4.0,7.6,12,0.00,,,0.00,VWS V14.01,2013-01-17 23:57:00,
2013-01-17 16:02:00,60.6,7.8,29.99,NE,44,4.0,4.9,12,0.00,,,0.00,VWS V14.01,2013-01-18 00:02:00,
2013-01-17 16:07:00,60.4,7.6,29.99,East,97,4.0,4.0,12,0.00,,,0.00,VWS V14.01,2013-01-18 00:07:00,
2013-01-17 16:12:00,60.4,7.6,29.99,South,190,3.1,4.0,12,0.00,,,0.00,VWS V14.01,2013-01-18 00:12:00,
2013-01-17 16:17:00,60.4,7.6,29.99,ESE,114,4.9,4.9,12,0.00,,,0.00,VWS V14.01,2013-01-18 00:17:00,
2013-01-17 16:22:00,60.4,7.6,29.99,ENE,78,6.3,6.3,12,0.00,,,0.00,VWS V14.01,2013-01-18 00:22:00,
2013-01-17 16:27:00,60.1,7.3,29.99,ENE,69,4.9,7.6,12,0.00,,,0.00,VWS V14.01,2013-01-18 00:27:00,
2013-01-17 16:32:00,59.9,7.2,29.99,East,93,5.8,5.8,12,0.00,,,0.00,VWS V14.01,2013-01-18 00:32:00,
2013-01-17 16:37:00,59.5,6.9,29.99,NNE,33,7.6,12.8,12,0.00,,,0.00,VWS V14.01,2013-01-18 00:37:00,
2013-01-17 16:42:00,59.2,6.6,29.99,NE,44,6.7,6.7,12,0.00,,,0.00,VWS V14.01,2013-01-18 00:42:00,
2013-01-17 16:47:00,59.0,6.5,29.99,North,7,11.0,11.0,12,0.00,,,0.00,VWS V14.01,2013-01-18 00:47:00,
2013-01-17 16:52:00,58.8,6.3,29.99,NE,42,8.1,8.1,12,0.00,,,0.00,VWS V14.01,2013-01-18 00:52:00,
2013-01-17 16:57:00,58.5,6.1,29.99,NNW,333,5.4,5.4,12,0.00,,,0.00,VWS V14.01,2013-01-18 00:57:00,
2013-01-17 17:02:00,57.9,5.6,29.99,NNE,17,4.0,6.7,12,0.00,,,0.00,VWS V14.01,2013-01-18 01:02:00,
2013-01-17 17:07:00,57.7,5.5,29.99,NE,52,4.0,4.0,12,0.00,,,0.00,VWS V14.01,2013-01-18 01:07:00,
2013-01-17 17:12:00,57.4,5.2,29.99,East,89,3.6,6.3,12,0.00,,,0.00,VWS V14.01,2013-01-18 01:12:00,
2013-01-17 17:17:00,57.2,5.1,29.99,ESE,117,7.6,7.6,12,0.00,,,0.00,VWS V14.01,2013-01-18 01:17:00,
2013-01-17 17:22:00,57.0,4.9,29.99,East,93,3.6,5.4,12,0.00,,,0.00,VWS V14.01,2013-01-18 01:22:00,
2013-01-17 17:27:00,56.8,4.8,29.99,ENE,57,2.7,6.3,12,0.00,,,0.00,VWS V14.01,2013-01-18 01:27:00,
2013-01-17 17:32:00,56.8,4.8,29.99,ENE,74,3.6,4.0,12,0.00,,,0.00,VWS V14.01,2013-01-18 01:32:00,
2013-01-17 17:37:00,56.8,4.8,29.99,WSW,243,5.4,5.4,12,0.00,,,0.00,VWS V14.01,2013-01-18 01:37:00,
2013-01-17 17:42:00,56.8,4.8,29.99,ENE,70,4.9,4.9,12,0.00,,,0.00,VWS V14.01,2013-01-18 01:42:00,
2013-01-17 17:47:00,56.8,4.8,29.99,East,88,4.0,8.3,12,0.00,,,0.00,VWS V14.01,2013-01-18 01:47:00,
2013-01-17 17:52:00,56.8,4.8,29.99,NE,50,3.1,5.4,12,0.00,,,0.00,VWS V14.01,2013-01-18 01:52:00,
2013-01-17 17:57:00,56.8,4.8,29.99,NNE,21,6.3,6.3,12,0.00,,,0.00,VWS V14.01,2013-01-18 01:57:00,
2013-01-17 18:02:00,56.7,4.6,29.99,ENE,73,8.3,8.3,12,0.00,,,0.00,VWS V14.01,2013-01-18 02:02:00,
2013-01-17 18:07:00,56.5,4.5,29.99,East,89,4.9,6.7,12,0.00,,,0.00,VWS V14.01,2013-01-18 02:07:00,
2013-01-17 18:12:00,56.3,4.4,29.99,ENE,77,3.1,4.9,12,0.00,,,0.00,VWS V14.01,2013-01-18 02:12:00,
2013-01-17 18:17:00,56.3,4.4,29.99,North,357,6.3,6.3,12,0.00,,,0.00,VWS V14.01,2013-01-18 02:17:00,
2013-01-17 18:22:00,56.1,4.2,29.99,NNE,33,4.9,4.9,12,0.00,,,0.00,VWS V14.01,2013-01-18 02:22:00,
2013-01-17 18:27:00,56.1,4.2,29.99,ESE,113,8.3,8.3,12,0.00,,,0.00,VWS V14.01,2013-01-18 02:27:00,
2013-01-17 18:32:00,56.1,4.2,29.99,NE,54,6.3,6.3,12,0.00,,,0.00,VWS V14.01,2013-01-18 02:32:00,
2013-01-17 18:37:00,56.1,4.2,29.99,ENE,68,4.9,4.9,12,0.00,,,0.00,VWS V14.01,2013-01-18 02:37:00,
2013-01-17 18:42:00,56.1,4.2,29.99,ESE,113,3.1,5.4,12,0.00,,,0.00,VWS V14.01,2013-01-18 02:42:00,
2013-01-17 18:47:00,56.3,4.4,29.99,East,89,3.1,4.9,12,0.00,,,0.00,VWS V14.01,2013-01-18 02:47:00,
2013-01-17 18:53:00,56.3,4.4,29.99,NNE,21,4.9,4.9,12,0.00,,,0.00,VWS V14.01,2013-01-18 02:53:00,
2013-01-17 18:58:00,56.1,4.2,29.99,ENE,65,5.4,6.3,12,0.00,,,0.00,VWS V14.01,2013-01-18 02:58:00,
2013-01-17 19:03:00,56.1,4.2,29.99,East,101,3.6,5.8,12,0.00,,,0.00,VWS V14.01,2013-01-18 03:03:00,
2013-01-17 19:08:00,55.9,4.1,29.99,NNW,332,3.6,7.2,12,0.00,,,0.00,VWS V14.01,2013-01-18 03:08:00,
2013-01-17 19:13:00,55.9,4.1,30.02,NE,39,5.4,5.4,12,0.00,,,0.00,VWS V14.01,2013-01-18 03:13:00,
2013-01-17 19:18:00,55.9,4.1,30.02,ESE,120,3.6,5.8,12,0.00,,,0.00,VWS V14.01,2013-01-18 03:18:00,
2013-01-17 19:23:00,55.9,4.1,30.02,ESE,120,4.0,4.0,12,0.00,,,0.00,VWS V14.01,2013-01-18 03:23:00,
2013-01-17 19:28:00,55.9,4.1,30.02,East,82,4.9,7.6,12,0.00,,,0.00,VWS V14.01,2013-01-18 03:28:00,
2013-01-17 19:33:00,55.8,3.9,30.02,East,81,3.1,6.7,12,0.00,,,0.00,VWS V14.01,2013-01-18 03:33:00,
2013-01-17 19:38:00,55.9,4.1,30.02,East,89,3.1,4.5,12,0.00,,,0.00,VWS V14.01,2013-01-18 03:38:00,
2013-01-17 19:43:00,55.9,4.1,30.02,East,93,3.1,7.2,12,0.00,,,0.00,VWS V14.01,2013-01-18 03:43:00,
2013-01-17 19:48:00,55.9,4.1,30.02,ENE,78,6.3,6.3,12,0.00,,,0.00,VWS V14.01,2013-01-18 03:48:00,
2013-01-17 19:53:00,55.9,4.1,30.02,SSE,149,6.3,6.3,12,0.00,,,0.00,VWS V14.01,2013-01-18 03:53:00,
2013-01-17 19:58:00,55.9,4.1,30.02,North,11,5.4,5.4,12,0.00,,,0.00,VWS V14.01,2013-01-18 03:58:00,
2013-01-17 20:03:00,55.9,4.1,30.02,ESE,117,4.0,4.0,12,0.00,,,0.00,VWS V14.01,2013-01-18 04:03:00,
2013-01-17 20:08:00,55.8,3.9,30.02,ENE,65,8.1,8.1,12,0.00,,,0.00,VWS V14.01,2013-01-18 04:08:00,
2013-01-17 20:13:00,55.6,3.8,30.02,North,11,6.3,6.3,12,0.00,,,0.00,VWS V14.01,2013-01-18 04:13:00,
2013-01-17 20:18:00,55.6,3.8,30.02,NE,53,2.7,6.3,12,0.00,,,0.00,VWS V14.01,2013-01-18 04:18:00,
2013-01-17 20:23:00,55.4,3.7,30.02,East,96,8.1,8.1,12,0.00,,,0.00,VWS V14.01,2013-01-18 04:23:00,
2013-01-17 20:28:00,55.4,3.7,30.02,ENE,60,3.6,4.0,12,0.00,,,0.00,VWS V14.01,2013-01-18 04:28:00,
2013-01-17 20:33:00,55.2,5.2,30.02,ENE,71,3.1,6.3,13,0.00,,,0.00,VWS V14.01,2013-01-18 04:33:00,
2013-01-17 20:38:00,55.0,5.1,30.02,NNE,29,3.1,3.1,13,0.00,,,0.00,VWS V14.01,2013-01-18 04:38:00,
2013-01-17 20:43:00,55.0,5.1,30.02,East,93,3.1,3.1,13,0.00,,,0.00,VWS V14.01,2013-01-18 04:43:00,
2013-01-17 20:48:00,54.7,4.8,30.02,ENE,78,4.0,4.0,13,0.00,,,0.00,VWS V14.01,2013-01-18 04:48:00,
2013-01-17 20:53:00,54.7,4.8,30.02,SE,143,0.0,0.0,13,0.00,,,0.00,VWS V14.01,2013-01-18 04:53:00,
2013-01-17 20:58:00,54.5,4.7,30.02,SE,128,2.2,2.2,13,0.00,,,0.00,VWS V14.01,2013-01-18 04:58:00,
2013-01-17 21:00:00,54.5,4.7,30.02,SSW,204,2.2,2.2,13,0.00,,,0.00,VWS V14.01,2013-01-18 05:00:00,
2013-01-17 21:01:00,54.5,4.7,30.02,South,179,2.7,2.7,13,0.00,,,0.00,VWS V14.01,2013-01-18 05:01:00,
2013-01-17 21:03:00,54.3,4.5,30.02,South,180,0.0,0.0,13,0.00,,,0.00,VWS V14.01,2013-01-18 05:03:00,
2013-01-17 21:08:00,54.1,4.4,30.02,NE,37,3.6,4.9,13,0.00,,,0.00,VWS V14.01,2013-01-18 05:08:00,
2013-01-17 21:13:00,54.0,4.2,30.02,East,95,0.0,3.1,13,0.00,,,0.00,VWS V14.01,2013-01-18 05:13:00,
2013-01-17 21:18:00,54.0,4.2,30.02,NE,56,0.0,2.7,13,0.00,,,0.00,VWS V14.01,2013-01-18 05:18:00,
2013-01-17 21:23:00,54.0,4.2,30.02,SE,129,3.1,3.1,13,0.00,,,0.00,VWS V14.01,2013-01-18 05:23:00,
2013-01-17 21:28:00,54.0,4.2,30.02,ESE,102,0.0,0.0,13,0.00,,,0.00,VWS V14.01,2013-01-18 05:28:00,
2013-01-17 21:33:00,54.1,4.4,30.02,East,92,2.7,3.1,13,0.00,,,0.00,VWS V14.01,2013-01-18 05:33:00,
2013-01-17 21:38:00,54.0,4.2,30.02,East,82,3.1,3.1,13,0.00,,,0.00,VWS V14.01,2013-01-18 05:38:00,
2013-01-17 21:43:00,54.0,4.2,30.02,ENE,67,2.2,2.7,13,0.00,,,0.00,VWS V14.01,2013-01-18 05:43:00,
2013-01-17 21:48:00,53.6,4.0,30.02,ENE,61,3.1,3.1,13,0.00,,,0.00,VWS V14.01,2013-01-18 05:48:00,
2013-01-17 21:53:00,53.2,3.7,30.02,NE,45,4.0,4.0,13,0.00,,,0.00,VWS V14.01,2013-01-18 05:53:00,
2013-01-17 21:58:00,53.2,3.7,30.02,ENE,71,2.2,2.7,13,0.00,,,0.00,VWS V14.01,2013-01-18 05:58:00,
2013-01-17 22:03:00,53.1,3.5,30.02,ENE,72,2.2,3.6,13,0.00,,,0.00,VWS V14.01,2013-01-18 06:03:00,
2013-01-17 22:08:00,53.1,3.5,30.02,East,84,4.0,4.0,13,0.00,,,0.00,VWS V14.01,2013-01-18 06:08:00,
2013-01-17 22:13:00,53.2,3.7,30.05,East,101,3.1,3.1,13,0.00,,,0.00,VWS V14.01,2013-01-18 06:13:00,
2013-01-17 22:18:00,53.4,3.8,30.05,ENE,58,3.6,3.6,13,0.00,,,0.00,VWS V14.01,2013-01-18 06:18:00,
2013-01-17 22:23:00,53.8,4.1,30.05,ENE,67,0.0,3.6,13,0.00,,,0.00,VWS V14.01,2013-01-18 06:23:00,
2013-01-17 22:28:00,53.8,4.1,30.05,East,85,2.7,6.7,13,0.00,,,0.00,VWS V14.01,2013-01-18 06:28:00,
2013-01-17 22:33:00,53.8,4.1,30.05,East,88,0.0,2.7,13,0.00,,,0.00,VWS V14.01,2013-01-18 06:33:00,
2013-01-17 22:38:00,53.6,4.0,30.05,ENE,78,4.9,4.9,13,0.00,,,0.00,VWS V14.01,2013-01-18 06:38:00,
2013-01-17 22:43:00,53.6,4.0,30.05,ESE,112,4.0,4.0,13,0.00,,,0.00,VWS V14.01,2013-01-18 06:43:00,
2013-01-17 22:48:00,53.8,4.1,30.05,East,84,3.6,4.9,13,0.00,,,0.00,VWS V14.01,2013-01-18 06:48:00,
2013-01-17 22:54:00,53.8,4.1,30.05,East,86,4.0,4.9,13,0.00,,,0.00,VWS V14.01,2013-01-18 06:54:00,
2013-01-17 22:58:00,53.8,4.1,30.05,SSE,147,3.1,5.8,13,0.00,,,0.00,VWS V14.01,2013-01-18 06:58:00,
2013-01-17 23:04:00,54.0,4.2,30.05,SSW,198,4.0,5.4,13,0.00,,,0.00,VWS V14.01,2013-01-18 07:04:00,
2013-01-17 23:09:00,54.0,4.2,30.05,SE,143,3.6,4.9,13,0.00,,,0.00,VWS V14.01,2013-01-18 07:09:00,
2013-01-17 23:14:00,54.0,4.2,30.05,SE,125,2.7,3.6,13,0.00,,,0.00,VWS V14.01,2013-01-18 07:14:00,
2013-01-17 23:19:00,54.0,4.2,30.05,ESE,109,5.8,5.8,13,0.00,,,0.00,VWS V14.01,2013-01-18 07:19:00,
2013-01-17 23:24:00,53.8,4.1,30.05,NE,48,4.0,5.4,13,0.00,,,0.00,VWS V14.01,2013-01-18 07:24:00,
2013-01-17 23:29:00,53.8,4.1,30.05,ESE,109,5.4,5.4,13,0.00,,,0.00,VWS V14.01,2013-01-18 07:29:00,
2013-01-17 23:34:00,53.8,4.1,30.05,SE,127,4.0,4.9,13,0.00,,,0.00,VWS V14.01,2013-01-18 07:34:00,
2013-01-17 23:39:00,53.8,4.1,30.02,SSE,166,3.1,3.6,13,0.00,,,0.00,VWS V14.01,2013-01-18 07:39:00,
2013-01-17 23:44:00,53.6,4.0,30.02,ENE,72,3.1,3.1,13,0.00,,,0.00,VWS V14.01,2013-01-18 07:44:00,
2013-01-17 23:49:00,52.9,3.4,30.02,ESE,117,0.0,0.0,13,0.00,,,0.00,VWS V14.01,2013-01-18 07:49:00,
2013-01-17 23:54:00,52.5,3.1,30.02,East,89,2.7,4.0,13,0.00,,,0.00,VWS V14.01,2013-01-18 07:54:00,
2013-01-17 23:59:00,52.3,3.0,30.02,ESE,116,0.0,4.0,13,0.00,,,0.00,VWS V14.01,2013-01-18 07:59:00,